Location: Twin Oaks Observatory
(35.2860°N, 85.1951°W)
Time: 04:26:05
(UTC-04:00)

Daily predictions for brighter satellites

Satellite Brightness Start Highest point End
(mag) Time Altitude Azimuth Time Altitude Azimuth Time Altitude Azimuth
USA 267 3.5 00:02:52 10° NE 00:07:57 50° E 00:07:57 50° E
Lacrosse 5 3.7 00:17:44 22° NE 00:17:44 22° NE 00:19:31 10° NE
Cosmos 1953 4.2 00:13:04 10° N 00:15:05 28° N 00:15:05 28° N
Cosmos 2360 Rocket 4.3 00:18:45 10° NNE 00:22:00 15° NE 00:22:52 15° ENE
Cosmos 1980 Rocket 2.5 00:18:00 10° NNW 00:22:51 60° WNW 00:22:51 60° WNW
Cosmos 2322 Rocket 2.9 00:29:23 10° N 00:34:12 47° NE 00:34:12 47° NE
Lacrosse 5 rocket 3.6 00:36:47 10° NNW 00:40:09 23° NNE 00:40:09 23° NNE
USA 229 DEB 3.8 00:36:09 10° NW 00:43:06 67° WSW 00:43:06 67° WSW
USA 229 3.8 00:36:14 10° NW 00:43:12 68° WSW 00:43:12 68° WSW
Cosmos 1934 Rocket 4.1 00:47:33 10° N 00:53:14 73° NNW 00:53:14 73° NNW
CZ-2C R/B 3.5 00:49:12 10° NNE 00:53:10 46° NE 00:53:10 46° NE
ATLAS CENTAUR R/B 4.2 01:10:25 10° NNW 01:10:49 13° NNW 01:10:49 13° NNW
SL-16 R/B 3.2 01:21:43 10° NNW 01:25:26 39° NW 01:25:26 39° NW
CZ-2C R/B 4.2 01:39:13 41° NW 01:39:13 41° NW 01:43:04 10° NNW
SeaSat 1 4.0 01:53:41 29° NW 01:53:41 29° NW 01:56:09 10° NNW
USA 267 4.4 01:46:11 10° NNE 01:52:04 37° NW 01:55:16 24° W
Cosmos 2322 4.4 01:47:07 10° NNW 01:51:19 50° N 01:51:19 50° N
Lacrosse 5 3.9 01:56:51 20° NW 01:57:51 21° NW 02:01:41 10° NNE
Cosmos 2219 3.9 02:04:29 48° NNE 02:04:29 48° NNE 02:08:29 10° NNE
Cosmos 2360 Rocket 3.1 02:00:54 10° NNW 02:04:36 41° NW 02:04:36 41° NW
COSMOS 2428 3.4 02:05:01 10° NNW 02:09:55 51° NE 02:09:55 51° NE
Cosmos 2173 Rocket 4.3 02:04:57 10° N 02:09:56 61° NNW 02:09:56 61° NNW
Cosmos 2322 Rocket 4.4 02:14:36 10° NW 02:16:01 15° WNW 02:16:01 15° WNW
Lacrosse 5 rocket 4.3 02:15:31 10° NW 02:15:50 12° NW 02:15:50 12° NW
USA 234 3.7 02:21:19 34° E 02:24:05 56° NE 02:30:28 10° NW
ATLAS 3B CENTAUR R/B 4.4 01:57:08 10° WSW 02:25:01 64° S 02:34:44 10° E
Cosmos 1140 Rocket 4.5 02:42:01 42° ENE 02:42:01 42° ENE 02:45:52 10° NNE
ATLAS 2AS CENTAUR R/B 3.2 02:33:16 10° NNW 02:41:12 64° NE 02:43:52 41° ESE
Cosmos 2333 Rocket 2.9 02:37:24 10° N 02:42:53 46° ENE 02:43:19 45° ENE
Cosmos 1864 Rocket 4.5 02:37:22 10° N 02:43:17 80° N 02:43:17 80° N
Cosmos 2297 Rocket 3.1 02:45:42 40° E 02:45:42 40° E 02:50:14 10° NE
NOSS 3-3 (A) 4.0 02:45:42 75° NNW 02:45:42 75° NNW 02:51:55 10° NNE
NOSS 3-3 (C) 4.0 02:45:49 75° NNW 02:45:49 75° NNW 02:52:01 10° NNE
Cosmos 2219 Rocket 2.5 02:44:05 10° NNW 02:49:22 65° NE 02:49:22 65° NE
VEP-3 4.5 02:26:47 10° W 03:02:21 24° SE 03:04:25 10° ESE
SL-16 R/B 4.4 02:58:18 10° ESE 03:03:04 25° ENE 03:07:58 10° NNE
NPP 4.1 03:00:20 10° NNE 03:05:22 51° E 03:05:22 51° E
CZ-3B DEB 4.4 03:03:30 44° S 03:08:26 62° ESE 03:22:41 10° NE
Cosmos 2237 Rocket 2.7 03:04:02 10° NNW 03:09:33 54° ENE 03:10:33 47° ESE
SL-16 R/B 4.3 03:06:27 10° N 03:10:56 23° ENE 03:15:22 10° ESE
Cosmos 1151 Rocket 4.1 03:07:57 10° N 03:11:08 43° NNE 03:11:08 43° NNE
Meteor 2-10 4.2 03:10:44 10° N 03:15:17 70° N 03:15:17 70° N
Cosmos 1954 Rocket 4.5 03:17:53 52° NW 03:17:53 52° NW 03:22:25 10° N
CBERS-1 4.2 03:15:26 10° NNE 03:20:18 64° E 03:20:18 64° E
Resurs 1-4 Rocket 3.4 03:17:59 10° NE 03:22:40 31° E 03:23:39 29° ESE
Cosmos 2227 Rocket 2.2 03:22:51 68° WNW 03:22:51 68° WNW 03:28:23 10° NNE
Helios 1A Rocket 4.5 03:20:07 10° N 03:22:38 31° NNW 03:22:38 31° NNW
ARIANE 5 R/B 3.8 03:23:09 10° NE 03:27:36 30° E 03:28:27 29° ESE
Cosmos 2228 Rocket 4.4 03:23:24 10° NNW 03:26:03 32° NW 03:26:03 32° NW
Cosmos 2058 3.9 03:32:09 43° N 03:32:09 43° N 03:35:00 10° N
Cosmos 2233 Rocket 4.2 03:30:20 10° NNW 03:36:28 54° W 03:36:35 54° W
COBE Rocket 4.5 03:34:50 10° NNE 03:39:17 44° E 03:39:38 44° ESE
CZ-2D R/B 2.7 03:39:12 10° NNE 03:44:16 49° E 03:45:23 42° SE
Cosmos 1072 Rocket 4.4 03:44:08 10° N 03:50:18 89° WSW 03:52:02 50° S
Cosmos 1666 Rocket 4.3 03:50:56 44° ESE 03:51:28 46° E 03:55:44 10° NNE
NOSS 0 Rocket 4.2 03:46:43 10° NW 03:52:26 48° W 03:52:26 48° W
Cosmos 2082 4.2 03:53:37 41° W 03:54:13 43° WNW 03:59:34 10° N
Cosmos 1455 2.6 03:52:48 10° N 03:56:14 64° NNE 03:56:14 64° NNE
SL-08 R/B 3.4 03:57:02 64° W 03:57:02 64° W 04:01:50 10° NNW
IRS-1C 4.1 03:53:55 10° N 03:59:14 69° WNW 03:59:59 60° WSW
Lacrosse 4 Rocket 1.4 04:02:51 73° E 04:02:51 73° E 04:06:56 10° NNE
APEX 4.4 04:01:35 52° SSW 04:03:16 84° WNW 04:10:29 10° NNE
AQUA 4.2 04:01:11 10° N 04:05:44 46° WNW 04:05:53 46° W
Spot 4 Rocket 3.9 04:01:21 10° NNE 04:06:31 86° WNW 04:07:35 57° SSW
USA 234 4.0 04:08:35 32° W 04:08:35 32° W 04:13:06 10° WNW
Cosmos 1805 Rocket 3.5 04:07:50 69° W 04:07:54 69° W 04:12:20 10° N
Cosmos 1626 3.7 04:09:45 25° NW 04:09:45 25° NW 04:11:57 10° NNW
Cosmos 1464 Rocket 3.9 04:04:18 10° NNW 04:10:24 67° W 04:12:16 44° SSW
Cosmos 2208 Rocket 3.8 04:06:56 10° NNW 04:12:09 77° WSW 04:13:46 45° S
Cosmos 1241 Rocket 4.3 04:10:00 10° NNW 04:16:25 78° WSW 04:22:27 11° SSE
ADEOS Rocket 3.6 04:09:17 10° N 04:16:50 71° WNW 04:20:34 34° SSW
DELTA 2 R/B (1) 3.9 04:15:06 29° W 04:17:52 62° N 04:23:23 10° ENE
IRS-1D 3.6 04:16:33 10° N 04:21:51 68° WNW 04:23:26 44° SW
Cosmos 1869 3.3 04:20:07 10° N 04:24:09 82° E 04:25:11 49° SSE
Cosmos 2333 Rocket 3.8 04:22:39 10° NW 04:25:15 19° W 04:25:15 19° W
Cosmos 2297 Rocket 3.6 04:27:30 21° W 04:29:06 24° WNW 04:33:39 10° N
ATLAS 2AS CENTAUR R/B 3.9 04:25:33 10° NW 04:31:13 24° WSW 04:31:13 24° WSW
CZ-2D R/B 3.7 04:28:49 10° NNE 04:32:51 62° E 04:34:35 33° S
NOSS 3-4 (A) 4.1 04:25:46 10° NNW 04:32:54 72° ENE 04:40:29 10° SE
NOSS 3-4 (C) 4.1 04:25:53 10° NNW 04:33:00 71° ENE 04:40:34 10° SE
Cosmos 2219 Rocket 4.2 04:30:18 10° WNW 04:31:02 12° WNW 04:31:02 12° WNW
Okean O Rocket 4.2 04:31:11 10° NE 04:33:51 16° E 04:36:32 10° SE
Sich 1 3.3 04:34:32 45° WSW 04:35:18 51° W 04:39:35 10° N
Cosmos 1633 Rocket 3.0 04:34:28 47° SW 04:35:28 62° W 04:39:48 10° N
Cosmos 1470 Rocket 3.9 04:33:52 27° SSE 04:36:05 60° E 04:40:20 10° NNE
SL-16 R/B 2.8 04:43:23 27° SSW 04:46:20 45° W 04:52:14 10° NNW
Cosmos 332 Rocket 4.0 04:43:43 10° NNW 04:48:34 72° ENE 04:53:25 10° SSE
UNKNOWN OBJECT B 2.9 04:47:26 10° N 04:51:23 61° WNW 04:52:49 35° SW
MOS 1 Rocket 3.5 04:46:20 10° N 04:51:35 84° WNW 04:55:15 21° SSW
ATLAS 5 CENTAUR R/B 2.5 04:49:34 21° S 04:52:21 45° ESE 04:57:02 10° NE
Abrixas rocket 4.4 04:51:59 14° SSE 04:52:59 16° SE 04:55:07 10° E
Cosmos 2237 Rocket 3.8 04:49:33 10° WNW 04:52:19 17° W 04:52:19 17° W
Cosmos 220 Rocket 4.0 04:52:17 28° SSW 04:54:34 89° W 04:59:03 10° NNE
SL-16 R/B 2.5 04:49:51 10° NW 04:55:12 44° WSW 04:59:21 16° S
Cosmos 2346 Rocket 4.5 04:50:58 21° SSW 04:55:19 72° W 05:01:34 10° N
ADEOS 4.4 04:52:56 10° N 04:57:36 34° WNW 04:59:53 23° WSW
SL-24 R/B 3.7 04:55:05 10° NNE 04:58:51 76° E 05:01:08 22° S
Cosmos 2227 4.4 04:56:31 25° SW 04:59:50 62° WNW 05:05:33 10° NNE
Cosmos 1315 Rocket 4.5 04:57:13 10° SSE 05:00:50 32° E 05:04:26 10° NNE
Resurs 1-4 Rocket 3.2 04:57:54 10° NNW 05:02:21 28° WNW 05:04:43 20° WSW
ARIANE 5 R/B 3.7 05:02:24 10° NNW 05:06:33 26° WNW 05:08:48 19° WSW
ADEOS II 2.9 05:03:52 10° NNE 05:08:58 49° E 05:14:02 10° S
ATLAS 3B CENTAUR R/B 3.3 04:57:44 10° W 05:10:26 43° SSW 05:15:26 10° SE
Meteor 2-3 Rocket 4.1 05:08:18 10° S 05:13:52 65° E 05:19:33 10° NNE
BREEZE M DEB (TANK) 1.9 05:15:57 24° SW 05:17:32 85° NW 05:19:43 10° NE
Cosmos 1943 4.3 05:16:01 10° N 05:21:27 47° ENE 05:26:51 10° SE
MOZ.5/SAFIR/RUBIN 5/SL-8 4.3 05:18:27 12° SSW 05:22:29 39° W 05:26:58 10° NNW
CZ-2D R/B 3.8 05:20:30 10° NNW 05:23:55 18° WNW 05:26:43 12° W
Cosmos 1867 3.6 05:20:41 14° SSW 05:25:28 83° ESE 05:30:57 10° NNE
Cosmos 2242 Rocket 4.4 05:21:35 10° NNW 05:25:36 33° W 05:29:08 13° SSW
Cosmos 2263 Rocket 2.4 05:20:33 10° SSW 05:26:04 72° ESE 05:31:38 10° NNE
Meteosat 1 Rocket2 3.8 05:23:52 18° SW 05:26:17 29° S 05:29:34 10° ESE
Cosmos 1892 2.6 05:25:02 10° S 05:28:48 83° W 05:32:38 10° N
OAO 3 Rocket 3.3 05:25:10 16° WSW 05:29:04 65° SSE 05:33:57 10° E
Cosmos 1933 3.7 05:25:33 10° NNW 05:29:27 45° W 05:33:21 10° SSW
USA 161 2.0 05:30:02 20° W 05:30:02 20° W 05:31:25 10° NW
CZ-3 R/B 3.8 04:50:15 10° W 05:33:07 64° SSW 05:42:14 10° ESE
Meteor 2-10 Rocket 3.5 05:30:54 10° NNW 05:35:47 56° W 05:40:45 10° S
Cosmos 1862 Rocket 4.1 05:32:59 10° NNW 05:37:00 38° W 05:40:59 10° SSW
GPS 2-04 Rocket1 4.2 05:36:03 13° WSW 05:38:18 20° SSW 05:41:23 10° SSE
Cosmos 1400 Rocket 3.6 05:38:33 12° SW 05:41:41 32° WNW 05:45:16 10° NNW
PAYLOAD B 4.3 05:36:14 10° NNE 05:41:46 87° ESE 05:47:16 10° SSW
Cosmos 841 Rocket 3.6 05:37:47 10° NNW 05:42:58 57° WSW 05:48:06 10° S
USA 102 4.3 05:42:00 10° N 05:44:03 17° NW 05:45:04 12° W
Landsat 4 3.9 05:46:05 10° S 05:49:44 48° W 05:53:27 10° NNW
Cosmos 371 Rocket 4.1 05:49:12 10° NW 05:53:21 29° W 05:57:28 10° SSW
Meteor 1-26 Rocket 4.4 05:50:39 10° NNW 05:56:10 51° W 06:01:32 10° SSW
Cosmos 1782 4.0 05:52:36 10° N 05:56:29 47° E 06:00:21 10° SSE
EO 1 Del DPAF 3.9 05:54:30 10° SSE 05:58:16 62° ENE 06:02:05 10° N
Nadezhda 4 Rocket 4.1 05:56:29 10° S 06:02:43 85° W 06:09:03 10° N
